Time,TemperatureF,DewpointF,PressureIn,WindDirection,WindDirectionDegrees,WindSpeedMPH,WindSpeedGustMPH,Humidity,HourlyPrecipIn,Conditions,Clouds,dailyrainin,SoftwareType,DateUTC
2013-10-24 08:42:00,40.0,36.0,30.27,NNW,329,1.0,-999.0,84,-99.99,,,-99.99,,2013-10-24 13:42:00,
2013-10-24 08:52:00,40.0,36.0,30.27,NNW,329,1.0,-999.0,84,-99.99,,,-99.99,,2013-10-24 13:52:00,
2013-10-24 09:11:00,40.0,35.0,30.28,NNW,344,1.0,-999.0,82,-99.99,,,-99.99,,2013-10-24 14:11:00,
2013-10-24 09:22:00,40.0,35.0,30.28,NNW,344,1.0,-999.0,82,-99.99,,,-99.99,,2013-10-24 14:22:00,
2013-10-24 09:42:00,41.0,34.0,30.32,NW,325,1.0,-999.0,75,-99.99,,,-99.99,,2013-10-24 14:42:00,
2013-10-24 09:52:00,41.0,33.0,30.29,NW,309,1.0,-999.0,72,-99.99,,,-99.99,,2013-10-24 14:52:00,
2013-10-24 10:11:00,42.0,33.0,30.33,North,355,2.0,-999.0,70,-99.99,,,-99.99,,2013-10-24 15:11:00,
2013-10-24 10:21:00,43.0,32.0,30.33,NW,323,4.0,-999.0,65,-99.99,,,-99.99,,2013-10-24 15:21:00,
2013-10-24 10:43:00,43.0,29.0,30.34,NNW,344,3.0,-999.0,58,-99.99,,,-99.99,,2013-10-24 15:43:00,
2013-10-24 10:53:00,43.0,29.0,30.34,NNW,344,3.0,-999.0,58,-99.99,,,-99.99,,2013-10-24 15:53:00,
2013-10-24 11:03:00,43.0,29.0,30.34,NNW,344,3.0,-999.0,58,-99.99,,,-99.99,,2013-10-24 16:03:00,
2013-10-24 12:12:00,46.0,27.0,30.36,North,349,3.0,-999.0,48,-99.99,,,-99.99,,2013-10-24 17:12:00,
2013-10-24 12:22:00,47.0,28.0,30.36,NW,325,6.0,-999.0,47,-99.99,,,-99.99,,2013-10-24 17:22:00,
2013-10-24 12:43:00,47.0,29.0,30.36,NW,309,4.0,-999.0,49,-99.99,,,-99.99,,2013-10-24 17:43:00,
2013-10-24 12:52:00,47.0,29.0,30.34,NNW,339,6.0,-999.0,49,-99.99,,,-99.99,,2013-10-24 17:52:00,
2013-10-24 13:12:00,47.0,27.0,30.34,NNW,335,4.0,-999.0,46,-99.99,,,-99.99,,2013-10-24 18:12:00,
2013-10-24 13:23:00,47.0,26.0,30.34,NNW,348,6.0,-999.0,44,-99.99,,,-99.99,,2013-10-24 18:23:00,
2013-10-24 13:32:00,47.0,26.0,30.34,NNW,348,6.0,-999.0,44,-99.99,,,-99.99,,2013-10-24 18:32:00,
2013-10-24 13:42:00,47.0,26.0,30.34,NNW,348,6.0,-999.0,44,-99.99,,,-99.99,,2013-10-24 18:42:00,
2013-10-24 13:53:00,47.0,26.0,30.34,NNW,348,6.0,-999.0,44,-99.99,,,-99.99,,2013-10-24 18:53:00,
2013-10-24 16:12:00,51.0,26.0,30.34,NNW,330,3.0,-999.0,37,-99.99,,,-99.99,,2013-10-24 21:12:00,
2013-10-24 16:22:00,50.0,24.0,30.34,NW,317,5.0,-999.0,36,-99.99,,,-99.99,,2013-10-24 21:22:00,
2013-10-24 16:43:00,51.0,26.0,30.34,WNW,297,3.0,-999.0,38,-99.99,,,-99.99,,2013-10-24 21:43:00,
2013-10-24 16:54:00,50.0,24.0,30.34,NW,323,5.0,-999.0,36,-99.99,,,-99.99,,2013-10-24 21:54:00,
2013-10-24 17:14:00,50.0,25.0,30.34,NNW,333,3.0,-999.0,37,-99.99,,,-99.99,,2013-10-24 22:14:00,
2013-10-24 17:24:00,50.0,25.0,30.34,NNW,333,3.0,-999.0,37,-99.99,,,-99.99,,2013-10-24 22:24:00,
2013-10-24 17:43:00,49.0,25.0,30.33,NW,325,3.0,-999.0,39,-99.99,,,-99.99,,2013-10-24 22:43:00,
2013-10-24 17:54:00,48.0,25.0,30.34,NW,304,3.0,-999.0,41,-99.99,,,-99.99,,2013-10-24 22:54:00,
2013-10-24 18:13:00,48.0,25.0,30.34,NW,308,4.0,-999.0,41,-99.99,,,-99.99,,2013-10-24 23:13:00,
2013-10-24 18:22:00,47.0,26.0,30.34,WNW,294,2.0,-999.0,43,-99.99,,,-99.99,,2013-10-24 23:22:00,
2013-10-24 18:43:00,46.0,26.0,30.32,NNW,346,1.0,-999.0,45,-99.99,,,-99.99,,2013-10-24 23:43:00,
2013-10-24 18:53:00,45.0,28.0,30.32,NNW,346,0.0,-999.0,51,-99.99,,,-99.99,,2013-10-24 23:53:00,
2013-10-24 19:12:00,43.0,28.0,30.33,NNW,346,0.0,-999.0,56,-99.99,,,-99.99,,2013-10-25 00:12:00,
2013-10-24 19:22:00,41.0,30.0,30.34,NNW,346,0.0,-999.0,64,-99.99,,,-99.99,,2013-10-25 00:22:00,
2013-10-24 19:42:00,39.0,30.0,30.34,NNW,346,0.0,-999.0,69,-99.99,,,-99.99,,2013-10-25 00:42:00,
2013-10-24 19:52:00,38.0,30.0,30.36,NNW,346,0.0,-999.0,74,-99.99,,,-99.99,,2013-10-25 00:52:00,
2013-10-24 20:12:00,37.0,30.0,30.36,NNW,346,0.0,-999.0,75,-99.99,,,-99.99,,2013-10-25 01:12:00,
2013-10-24 20:21:00,38.0,29.0,30.37,NNW,346,0.0,-999.0,69,-99.99,,,-99.99,,2013-10-25 01:21:00,
2013-10-24 20:43:00,39.0,28.0,30.37,NNW,346,0.0,-999.0,65,-99.99,,,-99.99,,2013-10-25 01:43:00,
2013-10-24 20:53:00,39.0,29.0,30.37,NNW,346,0.0,-999.0,67,-99.99,,,-99.99,,2013-10-25 01:53:00,
2013-10-24 21:12:00,38.0,29.0,30.38,NNW,346,0.0,-999.0,71,-99.99,,,-99.99,,2013-10-25 02:12:00,
2013-10-24 21:23:00,37.0,29.0,30.38,NNW,346,0.0,-999.0,74,-99.99,,,-99.99,,2013-10-25 02:23:00,
2013-10-24 21:42:00,36.0,29.0,30.39,NNW,346,0.0,-999.0,74,-99.99,,,-99.99,,2013-10-25 02:42:00,
2013-10-24 21:52:00,35.0,29.0,30.39,NNW,346,0.0,-999.0,80,-99.99,,,-99.99,,2013-10-25 02:52:00,
2013-10-24 22:12:00,34.0,29.0,30.40,NNW,346,0.0,-999.0,82,-99.99,,,-99.99,,2013-10-25 03:12:00,
2013-10-24 22:23:00,34.0,28.0,30.41,NNW,346,0.0,-999.0,80,-99.99,,,-99.99,,2013-10-25 03:23:00,
2013-10-24 22:44:00,34.0,28.0,30.41,NNW,346,0.0,-999.0,79,-99.99,,,-99.99,,2013-10-25 03:44:00,
2013-10-24 22:54:00,34.0,29.0,30.42,NNW,346,0.0,-999.0,82,-99.99,,,-99.99,,2013-10-25 03:54:00,
2013-10-24 23:14:00,33.0,29.0,30.42,NNW,346,0.0,-999.0,84,-99.99,,,-99.99,,2013-10-25 04:14:00,
2013-10-24 23:24:00,33.0,29.0,30.42,NNW,346,0.0,-999.0,84,-99.99,,,-99.99,,2013-10-25 04:24:00,
2013-10-24 23:34:00,33.0,29.0,30.42,NNW,346,0.0,-999.0,84,-99.99,,,-99.99,,2013-10-25 04:34:00,